Vorticity
9 9 9 8 8 8 8 7 7 7 7 7 7 6 6 6 6 7 7 7 7 7 7 7 7 7 8 8 7 7 7 7 7 7 7 7 7 7 6 6 6 6 6 6 7 7 7 6 6 6 7 7 7 7 7 7 7 7 7 7 8 8 8 8 8 8 8 8 8 8 7 7 7 7 7 7 7 8 8 7 6 6 6 6 6 6 5 5 5 4 4 5 9 12 13 9 9 9 8 7 6 6 6
8 8 9 9 9 9 9 9 8 8 8 8 7 7 7 7 7 7 6 6 6 6 6 6 6 6 7 7 7 7 7 7 7 7 7 7 7 7 7 7 7 7 7 7 7 7 7 7 7 7 7 8 8 8 8 8 8 8 8 8 8 8 8 8 8 8 8 8 8 7 7 7 7 7 7 7 7 7 6 6 5 5 5 5 5 5 5 5 5 6 8 10 11 11 10 7 5 4 4 4 5 5 5
5 7 8 9 9 10 10 10 10 10 10 9 9 9 9 9 9 8 8 8 8 7 7 7 7 7 7 7 8 8 8 8 8 8 8 7 7 7 7 7 7 7 7 7 7 7 7 7 7 8 8 8 8 8 8 8 8 8 8 8 8 8 7 7 7 7 7 7 7 7 7 7 6 6 6 6 6 6 6 6 5 5 5 5 5 5 5 6 6 6 8 9 8 7 6 4 3 3 3 4 5 5 5
3 5 6 7 8 9 10 10 11 11 11 11 11 11 11 11 11 10 10 10 10 9 9 9 9 9 9 9 9 9 9 9 8 8 8 8 8 8 7 7 7 7 7 7 7 7 7 7 7 8 8 8 8 8 7 7 7 7 7 7 7 7 7 7 7 7 7 6 6 6 6 6 6 6 6 6 6 6 6 5 5 5 5 5 5 5 6 6 6 6 7 7 7 7 7 5 5 4 4 5 5 5 5
3 3 4 5 5 6 8 8 9 10 10 10 10 10 10 10 10 10 10 10 10 10 10 9 9 9 9 9 9 9 9 9 8 8 8 8 8 8 8 8 8 7 7 7 7 7 7 7 7 7 7 7 7 7 7 7 7 7 7 7 7 6 6 6 6 6 6 6 6 5 5 5 5 5 6 6 6 6 5 5 5 5 5 5 5 5 6 6 6 6 7 7 7 7 7 6 6 6 6 6 6 6 6
4 4 3 3 3 4 4 5 6 6 7 7 7 7 8 8 7 7 7 7 7 7 7 7 7 7 7 7 7 7 7 7 7 6 6 6 6 6 6 6 7 7 7 7 7 7 7 7 7 7 7 7 6 6 6 6 6 6 6 6 6 6 6 6 6 6 5 5 5 5 5 5 5 5 5 5 5 5 5 5 5 5 5 5 5 6 6 6 6 6 7 7 7 7 7 7 7 7 7 7 7 7 6
6 5 4 3 3 2 3 3 3 3 3 4 4 4 4 4 4 4 4 4 4 4 4 4 4 4 4 4 4 4 4 4 4 4 4 4 4 4 4 4 4 5 5 5 5 5 5 5 5 5 6 6 6 6 6 6 6 6 6 6 6 6 6 6 5 5 5 5 5 5 5 5 5 5 5 5 5 5 5 6 6 6 6 6 6 6 6 6 6 6 6 7 7 7 7 7 7 6 6 7 7 7 7
6 6 5 4 4 3 3 2 2 2 2 2 2 2 2 2 2 3 3 3 3 3 3 3 3 3 3 3 3 3 3 3 3 3 3 4 4 4 4 4 4 4 4 4 4 4 4 4 4 4 5 5 5 5 5 5 5 5 5 5 5 5 5 5 5 5 5 5 5 5 5 5 5 5 5 5 5 6 6 6 6 6 6 6 6 7 7 7 6 6 6 6 6 6 6 6 7 7 7 6 6 7 7
6 6 5 5 4 4 3 3 3 2 2 2 2 2 2 2 2 2 2 2 2 2 2 2 2 2 2 2 3 3 3 3 3 4 4 4 4 5 5 5 5 5 5 5 5 5 5 5 5 5 5 5 5 5 5 5 5 5 5 5 5 5 5 5 5 5 5 5 5 5 5 5 6 6 6 6 6 6 6 6 6 6 6 6 7 7 7 7 7 7 7 7 6 6 7 7 7 8 8 8 7 7 7
5 5 5 5 4 4 4 3 3 3 3 3 3 3 3 2 2 2 2 2 2 2 2 2 2 2 2 2 2 3 3 3 3 3 4 4 4 4 5 5 5 6 6 6 6 6 7 7 6 6 6 6 5 5 5 5 5 5 5 5 5 5 5 5 5 5 5 5 5 6 6 6 6 6 6 6 6 6 6 6 6 6 7 7 7 7 7 7 7 7 7 8 8 8 7 7 7 7 8 8 8 8 7
5 4 4 4 4 4 4 3 3 3 3 4 4 3 3 3 3 3 3 3 3 3 3 3 3 3 2 2 2 2 2 3 3 3 3 3 3 3 4 4 4 5 5 5 6 6 7 7 7 7 7 7 7 6 6 6 5 5 5 5 5 5 6 6 5 5 5 6 6 6 6 6 6 6 6 7 7 7 7 7 7 7 7 7 7 7 7 7 7 7 7 8 8 8 8 7 7 7 7 7 7 7 7
5 4 4 4 4 3 3 3 3 3 3 4 4 3 3 3 3 3 3 3 3 3 3 3 3 3 3 3 3 3 2 2 2 2 2 2 2 3 3 3 3 4 4 4 5 5 6 7 7 8 8 8 8 8 8 7 6 6 6 5 6 6 6 6 6 6 6 6 6 6 6 6 7 7 7 7 7 7 7 7 7 7 7 7 7 7 7 7 7 7 7 7 7 7 7 7 7 7 7 7 7 7 7
6 5 5 4 4 3 3 3 3 2 2 3 3 3 2 3 3 3 3 3 3 3 3 3 4 4 4 3 3 3 3 2 2 2 2 2 2 2 3 3 3 3 3 4 4 4 5 6 6 7 8 9 9 9 9 8 7 7 6 6 6 6 6 6 6 6 6 6 6 6 6 7 7 7 7 7 7 7 7 7 7 7 8 7 7 8 8 7 7 7 7 7 7 7 7 7 7 7 7 7 7 7 7
5 5 6 5 4 4 3 3 3 3 2 2 2 2 1 2 2 3 3 3 3 3 4 4 4 4 4 4 4 3 3 3 2 2 2 2 2 2 2 3 3 3 3 4 4 4 5 5 6 6 7 8 9 10 10 9 9 8 7 7 6 6 6 6 6 6 6 6 7 7 7 7 7 7 7 7 7 7 7 7 7 7 8 7 8 8 8 8 7 7 7 7 7 7 7 7 7 7 7 7 7 7 7
3 3 5 6 5 5 5 5 4 3 2 2 2 2 1 1 1 2 2 2 3 3 4 4 5 5 5 5 4 4 3 3 2 2 2 2 2 2 2 2 3 3 3 4 4 4 5 5 5 6 7 8 8 9 10 10 10 9 9 8 8 7 7 6 6 6 6 6 7 7 7 7 7 7 7 7 7 7 7 8 8 8 8 8 8 8 8 8 8 7 7 7 7 7 7 7 7 7 7 7 7 7 7
3 2 2 4 5 5 6 5 5 4 3 3 2 2 2 1 1 1 1 1 2 3 3 4 4 5 5 5 5 4 4 3 3 2 2 2 2 2 2 2 2 2 3 3 4 4 4 5 5 6 7 7 8 9 9 10 10 10 10 10 9 8 8 7 7 7 7 7 7 7 7 7 7 7 7 7 7 7 7 7 8 8 8 8 8 8 8 8 8 8 8 8 8 7 7 7 7 7 7 7 7 7 7
3 2 1 2 3 4 4 5 5 5 4 3 3 3 3 2 1 1 1 0 0 1 3 3 3 4 4 4 4 4 4 3 3 3 2 2 2 2 2 1 1 2 2 2 3 3 3 4 5 5 6 7 8 9 9 10 10 10 10 10 10 10 9 8 7 7 7 7 7 7 7 7 7 7 7 7 7 7 7 7 7 7 7 7 7 7 7 7 8 8 8 8 8 8 8 8 8 8 7 7 7 7 7
3 3 1 1 2 2 2 3 4 5 5 4 4 3 3 2 2 2 1 1 0 -0 2 2 3 3 3 4 4 4 4 3 3 3 2 2 2 2 2 1 1 1 1 2 2 2 3 3 4 4 5 7 8 9 9 10 10 10 11 11 11 10 10 9 8 7 7 7 7 7 7 7 7 7 7 7 7 7 7 7 7 7 7 7 7 7 7 7 7 7 7 7 8 8 8 8 8 8 8 8 8 7 7
1 1 2 1 1 1 1 2 3 4 4 4 4 3 3 2 2 2 2 1 1 0 2 1 2 2 3 3 3 3 3 3 3 3 3 3 2 2 2 1 1 1 1 1 1 2 2 2 3 3 4 6 7 8 9 10 10 10 11 11 11 11 11 10 8 8 7 7 7 7 7 7 7 7 7 7 7 6 6 6 6 6 6 7 7 7 7 7 7 7 7 7 7 8 8 8 8 8 8 8 8 8 8
2 2 3 2 1 1 1 1 2 3 3 3 4 4 3 2 2 2 2 2 2 2 2 1 1 1 2 2 3 3 3 3 3 3 3 3 2 2 2 1 1 1 1 1 1 1 1 1 2 2 3 4 6 8 9 10 10 10 10 11 11 11 11 10 9 8 7 7 7 7 7 7 7 6 6 6 6 6 6 6 6 6 6 6 7 7 7 7 7 7 7 7 7 7 7 7 8 8 8 8 8 8 8
3 4 3 2 1 1 1 1 2 2 2 2 2 3 2 1 1 2 1 2 2 3 3 2 1 1 1 1 2 3 3 3 3 3 3 3 3 2 2 1 1 1 0 0 0 0 0 0 1 1 2 3 5 7 8 10 10 10 10 11 11 11 11 10 9 8 7 7 7 7 7 6 6 6 6 6 6 6 6 6 6 6 6 6 6 6 6 7 7 7 7 7 7 7 7 7 7 7 7 7 8 8 8
3 3 2 1 1 1 1 2 2 2 2 2 2 2 1 1 1 1 1 1 1 2 2 2 2 1 1 1 1 2 2 3 3 3 3 3 3 3 2 1 1 1 0 0 0 0 0 0 0 0 1 2 3 5 7 9 10 11 10 10 11 11 11 11 10 9 8 7 7 7 7 6 6 6 6 5 5 6 6 6 6 6 6 6 6 6 6 6 6 6 6 6 7 7 7 7 7 7 7 7 7 7 7
2 1 1 1 1 1 2 3 3 3 2 2 2 2 1 1 1 1 1 0 -0 0 1 1 2 2 2 1 1 1 1 2 2 2 2 2 3 3 3 2 2 1 0 0 0 0 0 -0 -0 -0 -0 0 2 3 6 8 10 11 11 11 11 11 11 11 10 9 8 7 7 6 6 6 6 5 5 5 5 5 6 6 6 6 6 6 6 6 6 6 6 6 6 6 6 6 7 7 7 7 7 7 7 7 7
2 1 0 0 0 0 2 3 4 4 2 3 3 3 2 2 2 2 2 1 1 0 -0 0 1 1 2 2 2 1 1 1 2 2 2 2 2 2 2 2 2 2 1 1 1 0 0 -0 -0 -0 0 -0 0 2 4 6 9 10 11 11 11 11 11 11 10 9 8 7 7 6 6 6 6 5 5 5 5 5 6 6 6 6 6 6 6 6 6 6 6 6 6 6 6 6 6 6 6 6 6 6 7 7 7
2 1 0 0 0 1 3 4 4 3 2 3 3 3 3 2 2 2 2 2 2 1 1 0 0 0 1 2 2 2 1 1 1 1 2 1 1 1 1 1 2 2 3 2 1 1 0 -0 -0 0 1 0 0 0 2 4 7 10 11 11 11 11 11 11 10 10 9 8 7 6 6 6 6 5 5 5 5 5 6 6 6 6 6 6 6 6 6 6 6 6 6 6 6 6 6 6 6 6 6 6 7 7 7
2 1 0 0 1 1 3 4 4 3 3 2 2 3 3 3 3 2 2 3 2 2 2 1 1 0 1 1 1 1 1 1 1 1 1 1 1 1 1 1 1 2 3 3 2 2 1 0 -0 0 1 1 0 -0 1 3 5 8 10 11 11 11 11 11 10 10 9 8 7 7 6 6 6 5 5 5 5 5 5 5 5 5 5 5 5 6 6 6 6 6 6 6 6 6 6 6 6 6 6 6 7 7 7
2 1 0 0 0 1 2 3 4 3 3 2 2 2 2 2 2 2 2 2 2 3 3 2 2 1 1 1 1 1 2 1 1 1 0 1 1 1 1 1 1 1 2 2 3 3 2 1 0 0 1 1 1 0 -0 1 3 6 9 10 11 11 10 10 10 10 9 8 8 7 6 6 6 5 5 4 4 4 5 5 5 5 5 5 5 5 6 6 6 6 6 6 6 6 6 6 6 6 6 6 6 7 7
2 1 0 -0 -0 0 1 3 3 4 3 2 2 2 2 2 2 2 2 2 2 2 2 3 3 2 2 2 2 2 2 2 2 1 1 1 1 1 1 1 0 0 1 1 2 3 3 2 1 1 1 2 2 1 -0 0 2 4 7 9 10 11 10 10 10 10 10 9 8 7 6 6 6 5 5 4 4 4 4 4 4 4 5 5 5 5 6 6 6 6 6 6 6 6 6 6 6 6 6 6 6 6 6
2 1 0 -1 -1 -0 1 3 4 4 4 3 2 2 2 2 2 2 2 2 2 2 2 2 3 3 3 2 2 2 3 3 2 2 2 1 1 1 1 1 1 0 0 0 1 2 3 3 2 1 1 2 2 1 0 0 1 3 6 8 10 10 10 10 10 10 10 9 8 7 7 6 6 5 5 4 4 4 4 4 4 4 5 5 5 5 6 6 6 6 6 6 6 6 6 6 6 6 6 6 6 6 6
3 2 1 -0 -0 1 2 4 5 5 4 3 2 2 2 2 2 2 2 2 2 2 2 2 3 3 3 3 3 3 3 3 3 3 3 2 2 2 1 1 1 1 1 1 1 1 2 2 2 2 2 2 2 2 1 0 1 2 4 6 8 10 10 10 10 10 10 9 9 8 7 7 6 6 5 5 4 4 4 4 4 4 5 5 5 5 6 6 6 6 6 6 6 6 6 6 6 6 6 6 6 6 6
2 2 1 0 1 2 4 4 5 4 3 3 3 3 3 3 3 2 2 2 3 3 3 3 3 3 3 3 3 3 4 4 4 3 3 3 3 3 2 2 2 2 2 1 1 1 1 2 2 2 2 2 3 3 1 1 1 1 3 5 7 9 10 10 10 10 10 10 9 9 8 7 7 6 6 5 5 4 4 4 4 4 5 5 5 5 5 5 5 6 6 6 6 6 6 6 6 6 6 6 6 6 6
2 1 -0 0 1 3 4 4 4 3 1 1 2 3 4 4 4 3 3 3 3 3 3 3 3 3 3 3 3 3 3 4 4 4 4 4 3 3 3 3 3 3 3 2 2 2 2 2 2 2 2 2 3 3 2 1 1 1 2 4 6 8 9 10 10 10 10 10 9 9 9 8 7 7 6 6 5 5 4 4 4 4 4 5 5 5 5 5 5 5 5 5 5 5 5 6 6 6 6 6 6 6 6
2 0 -1 -0 1 2 4 4 3 2 1 1 1 3 3 4 3 3 3 3 3 3 2 2 2 2 3 3 3 3 3 3 3 4 4 4 4 4 4 3 3 3 3 3 3 3 2 2 2 2 2 2 3 3 3 2 2 1 1 3 5 7 8 9 9 10 10 10 10 9 9 8 8 7 7 6 6 5 5 4 4 4 4 5 5 5 5 5 5 5 5 5 5 5 5 5 5 5 5 5 5 5 6
2 1 -0 -0 0 1 3 2 2 2 1 1 1 2 3 3 3 3 3 2 2 2 2 2 2 2 2 2 3 3 3 3 3 3 4 4 4 4 4 4 4 4 4 4 4 3 3 3 3 2 2 2 3 3 3 3 2 2 1 2 4 5 7 8 8 9 9 9 10 10 9 9 8 8 7 7 6 6 5 5 5 4 5 5 5 5 5 5 5 5 5 5 5 5 5 5 5 5 5 5 5 5 6
3 2 1 0 -0 0 1 1 1 1 1 1 1 2 2 2 2 2 2 2 2 2 3 2 2 2 3 3 3 3 3 3 3 3 4 4 4 4 4 4 4 4 4 4 4 4 4 4 3 3 3 3 3 3 3 3 3 2 2 2 3 4 6 7 8 8 8 9 9 10 10 9 9 8 7 7 7 6 6 5 5 5 5 5 5 5 5 5 5 5 5 5 5 5 5 5 5 5 5 5 5 5 5
4 3 2 1 0 -0 -0 0 1 1 1 0 1 1 1 2 2 2 2 2 3 3 3 3 3 3 3 3 3 3 3 3 3 3 4 4 4 5 5 5 5 5 5 5 5 4 4 5 4 4 4 3 3 3 4 4 3 2 2 2 3 4 5 6 7 7 8 8 9 9 10 10 9 9 8 8 7 7 6 6 5 5 5 5 5 5 4 4 4 4 5 4 4 5 5 5 5 5 5 5 5 5 5
4 4 3 2 1 0 -0 -0 -0 0 0 0 0 0 0 1 1 2 2 3 3 3 3 4 4 4 4 4 3 3 3 3 3 3 4 4 5 5 5 5 5 5 5 5 5 5 5 5 5 5 4 4 4 4 4 4 3 3 2 2 3 3 4 5 6 7 7 7 8 9 9 10 9 9 9 8 8 7 7 6 6 5 5 5 5 5 4 4 4 4 4 4 4 4 4 4 4 4 4 4 4 5 5
4 4 4 3 2 1 1 0 -0 0 0 0 0 0 0 0 1 1 2 3 3 4 4 4 4 4 5 4 4 4 4 4 3 4 4 4 5 5 6 5 5 5 5 5 5 5 5 5 5 5 5 5 4 4 4 4 4 3 2 2 3 3 4 5 6 6 6 7 7 8 9 9 9 9 9 8 8 8 8 7 6 5 5 5 5 5 4 4 4 4 4 4 4 4 4 4 4 4 4 4 4 4 4
6 5 5 4 4 3 2 2 1 1 1 1 1 1 0 1 1 2 3 4 5 5 5 5 5 4 5 5 4 4 4 4 4 4 4 4 5 5 6 6 6 6 6 6 6 6 6 5 5 5 5 5 5 5 5 5 4 3 3 2 2 3 3 5 5 6 6 6 7 7 8 8 9 9 9 9 9 9 8 8 7 6 5 5 5 5 5 4 4 4 4 4 4 4 3 4 4 4 4 4 4 4 4
9 8 7 6 6 5 4 3 3 2 2 2 2 2 2 2 3 4 5 6 6 6 6 5 5 4 4 4 5 5 5 4 4 4 4 4 5 5 6 6 6 6 6 6 6 6 6 6 6 6 6 6 5 5 5 5 4 4 3 2 2 2 3 5 5 5 6 6 6 7 7 8 8 9 9 9 9 9 9 8 8 7 6 5 5 5 5 5 4 4 4 4 4 4 3 3 3 3 4 4 4 4 4
12 11 10 9 8 7 7 6 5 5 4 4 4 4 5 5 5 6 7 8 8 7 6 5 4 4 4 5 5 5 5 5 5 5 5 5 5 5 5 6 6 6 7 7 7 7 7 6 6 6 6 6 5 5 5 5 5 4 3 2 2 2 3 4 5 5 5 6 6 7 7 7 7 8 8 9 9 9 9 9 8 8 7 6 5 5 5 5 5 4 4 4 4 4 3 3 3 3 3 3 3 3 4
16 15 13 12 12 11 10 9 9 8 8 8 8 8 9 9 9 9 9 9 8 8 6 5 4 4 5 5 6 6 6 6 5 5 6 5 5 5 5 5 6 6 7 7 7 7 7 7 7 6 6 6 6 6 6 5 5 5 4 3 2 2 2 3 4 4 4 5 6 6 7 7 7 7 8 8 9 9 9 9 9 8 7 7 6 5 5 5 5 5 4 4 4 4 3 3 3 3 3 3 3 3 3
18 18 17 16 16 15 14 14 14 14 14 14 14 14 14 14 13 11 10 9 8 8 6 5 5 5 6 7 7 7 7 7 6 6 6 6 5 5 4 5 5 6 7 7 8 8 8 7 7 7 6 6 6 6 6 6 5 5 5 4 3 2 2 3 3 3 4 5 6 6 6 6 7 7 7 8 8 9 9 9 9 8 8 7 7 6 6 5 5 5 4 4 4 4 4 3 3 3 3 3 3 3 3
18 19 19 19 19 19 19 18 18 18 18 18 18 18 18 17 15 12 10 8 7 7 6 6 6 6 7 7 8 7 7 7 7 6 6 6 5 5 4 5 5 6 7 8 8 8 8 8 7 7 6 6 6 6 5 6 6 6 5 4 3 3 3 3 3 3 4 4 5 5 5 6 6 6 7 7 8 8 9 9 9 9 8 8 7 7 6 5 5 5 5 4 4 4 4 4 3 3 3 3 3 3 2
13 15 17 17 18 18 18 17 17 16 16 16 16 16 16 15 14 11 9 7 6 6 6 6 6 7 7 7 7 7 7 7 6 6 6 6 6 5 5 5 5 6 6 7 8 8 8 8 8 7 7 6 6 5 5 6 6 6 5 4 4 3 3 3 3 3 3 4 5 5 4 5 5 6 6 7 8 8 8 8 9 9 9 8 8 7 6 6 5 5 5 5 4 4 4 4 4 3 3 3 3 3 3
7 8 9 10 10 10 10 9 9 8 8 9 9 10 10 10 10 9 8 7 6 5 5 5 6 8 8 8 8 7 7 7 7 7 7 7 7 7 6 6 6 6 6 7 8 8 9 9 8 8 7 7 6 5 5 6 6 6 6 5 4 3 3 3 3 3 3 4 4 4 4 4 5 5 6 7 7 8 8 8 8 8 8 8 8 7 7 6 6 5 5 5 4 4 4 4 4 3 3 3 3 3 3
2 2 2 2 2 2 2 2 2 3 3 4 4 5 5 6 7 7 7 7 6 6 6 6 6 7 9 9 9 9 8 8 8 8 8 7 7 7 7 7 6 6 6 6 7 8 9 9 9 8 8 7 6 6 5 5 6 6 6 5 4 3 2 2 3 3 4 3 4 4 4 4 4 5 6 7 7 8 8 8 8 8 8 8 8 8 7 7 6 6 5 5 5 4 4 4 4 4 3 3 3 3 3
-1 -1 -2 -2 -2 -2 -1 -0 1 2 3 3 3 4 4 5 5 6 6 6 6 7 7 7 7 7 7 9 10 10 9 10 9 9 8 7 7 7 7 7 7 7 7 7 7 8 8 8 8 8 8 7 7 6 5 5 5 6 7 6 4 3 2 2 2 3 3 3 4 4 4 4 4 4 5 6 7 8 8 8 8 8 8 8 8 8 7 7 7 6 6 5 5 5 5 4 4 4 3 3 3 3 3
-1 -1 -2 -2 -2 -1 -1 1 2 3 4 4 5 5 5 5 5 5 5 6 6 7 7 8 7 6 5 6 7 9 9 10 9 9 8 8 7 8 7 8 9 9 10 8 7 7 7 7 8 8 8 8 7 7 6 6 6 7 7 6 5 4 2 2 2 2 2 3 4 4 4 4 4 4 5 6 7 7 8 8 8 8 8 8 7 7 7 7 7 7 6 6 5 5 5 4 4 4 3 3 3 3 3
1 0 1 1 1 1 2 3 4 4 5 5 6 6 6 6 6 6 6 7 7 7 7 8 7 5 4 2 2 3 4 5 6 7 8 8 9 9 10 10 10 9 9 8 7 6 6 7 8 8 9 9 8 7 7 6 7 7 8 7 6 5 3 2 2 2 2 3 3 4 4 4 4 4 5 5 6 7 8 8 8 8 8 7 7 7 7 7 7 7 6 6 6 5 5 5 4 4 4 3 3 3 3
4 3 3 3 4 4 5 5 6 6 6 6 6 6 6 6 6 6 6 6 7 6 6 8 8 6 3 1 -1 -2 -1 1 2 3 5 7 8 8 8 8 7 6 5 6 7 7 7 7 7 8 8 9 8 8 7 7 7 7 7 7 7 5 4 2 2 1 2 2 3 4 4 4 4 4 4 5 6 7 8 8 8 8 7 7 7 8 7 7 6 6 6 6 6 6 5 5 5 4 4 4 4 4 4
9 9 7 7 7 8 7 8 8 9 8 8 8 8 7 7 6 5 4 3 3 3 4 5 6 7 5 3 1 -1 -3 -1 -0 -0 1 4 5 6 6 5 5 6 5 7 8 10 9 8 8 8 9 9 9 9 8 7 7 7 7 8 7 6 4 3 2 1 1 2 2 3 4 4 3 3 3 4 5 6 7 8 8 7 7 7 7 8 7 7 6 6 6 6 6 6 5 5 5 4 4 4 4 4 4
13 13 12 11 9 8 6 7 8 9 9 9 9 8 8 8 7 6 5 3 2 2 2 3 4 6 6 5 4 2 -1 -1 -2 -2 -3 -0 2 3 4 4 6 7 7 7 7 7 6 6 7 10 12 11 11 10 8 7 7 7 7 8 8 7 5 3 2 1 1 2 3 3 4 4 3 3 3 4 5 6 7 7 7 7 7 7 7 7 7 6 6 6 6 6 6 6 6 5 5 5 4 4 4 4 4
13 12 11 10 8 6 5 5 5 6 7 7 7 7 7 7 7 7 7 6 5 4 3 3 2 3 5 6 6 5 3 1 0 -1 -4 -3 -2 0 3 4 4 4 5 4 3 3 3 4 6 9 11 11 11 11 10 9 9 8 8 8 7 7 5 4 2 1 2 2 3 3 3 3 3 2 3 4 4 5 6 6 7 7 7 7 7 7 7 6 6 6 6 6 7 6 6 6 5 5 5 5 5 5 5
12 11 10 8 8 8 8 7 6 4 3 3 4 4 4 5 5 6 6 6 6 5 5 5 4 3 2 4 6 7 7 6 4 2 -0 -2 -2 -1 2 3 4 4 4 4 4 5 6 8 8 8 9 9 10 11 12 11 10 9 9 8 7 6 6 4 3 3 2 2 2 2 2 2 2 2 3 3 4 4 5 5 6 6 6 6 6 7 6 6 5 5 6 7 7 7 6 6 6 6 6 5 5 5 5
10 9 9 8 7 7 8 7 6 5 3 3 3 3 3 2 2 2 3 4 4 4 4 5 6 5 3 3 5 6 7 8 7 5 4 2 1 0 2 4 4 4 4 6 7 8 9 8 6 6 6 5 7 9 11 11 10 9 8 8 7 6 6 5 4 3 3 2 2 2 3 2 1 2 2 3 3 4 4 4 5 5 6 6 6 6 6 5 5 5 6 7 7 6 6 6 6 6 6 6 5 5 5
9 7 7 7 6 6 6 6 6 6 5 4 4 4 4 3 1 0 -0 -0 1 1 2 4 5 6 6 5 5 5 6 7 7 7 7 6 5 4 4 5 6 5 4 5 7 9 9 5 4 4 4 5 6 7 9 10 10 9 8 8 7 7 6 6 5 4 3 3 2 2 2 2 2 2 2 3 3 4 4 4 4 5 5 5 6 6 6 5 5 5 6 6 6 5 5 5 6 6 6 6 6 5 5
9 7 6 5 5 4 4 4 5 5 5 5 5 5 6 5 3 2 0 -0 -0 0 1 2 4 6 7 7 6 6 6 6 7 8 9 9 8 7 5 6 7 8 10 9 8 9 8 10 10 8 5 8 9 8 7 9 10 10 10 9 8 7 6 6 5 5 4 4 3 3 2 2 3 3 3 3 3 3 3 4 4 4 5 5 6 6 5 5 5 5 6 5 4 4 4 4 5 5 6 6 5 5 5
11 9 7 5 4 3 3 3 3 4 4 4 4 4 5 6 5 5 4 4 4 4 3 4 5 6 8 8 8 8 7 8 8 9 9 11 10 9 8 7 8 9 11 12 12 10 5 8 10 10 10 10 10 10 9 9 9 10 11 10 8 7 6 6 6 5 5 5 4 3 3 3 3 3 3 3 3 3 4 4 4 4 5 5 5 5 5 5 5 5 5 4 3 3 3 3 4 5 5 5 5 5 5
14 12 10 7 5 4 4 3 3 3 4 5 5 5 6 7 8 8 7 8 9 9 10 10 11 10 9 10 10 11 10 10 10 9 8 9 9 9 8 8 8 8 8 10 11 11 10 7 7 9 13 11 10 9 11 10 10 9 10 10 9 8 7 6 6 5 5 5 5 4 3 3 3 4 4 4 4 4 4 4 4 5 5 5 5 5 5 5 5 5 5 4 3 2 2 3 4 4 5 5 4 4 4
13 13 12 11 9 8 7 7 7 7 7 7 8 8 10 11 11 11 11 12 13 14 16 16 16 16 15 13 13 13 12 11 10 11 11 10 9 9 9 8 8 7 7 8 10 12 13 11 9 9 11 12 11 9 9 10 10 10 10 10 10 9 8 7 6 5 5 5 5 5 4 4 4 4 5 4 4 4 4 4 5 5 5 5 5 5 5 5 5 5 5 4 4 3 3 3 3 3 4 4 4 4 4
Height
3187 3187 3187 3187 3187 3187 3187 3187 3187 3187 3187 3187 3187 3187 3187 3187 3187 3187 3187 3187 3186 3186 3187 3187 3187 3187 3187 3187 3187 3187 3188 3188 3188 3188 3188 3188 3188 3188 3188 3188 3188 3188 3188 3188 3188 3188 3188 3188 3188 3188 3187 3187 3187 3187 3187 3187 3187 3187 3186 3186 3186 3186 3186 3185 3185 3185 3185 3185 3185 3185 3185 3185 3184 3184 3184 3184 3184 3184 3183 3183 3182 3182 3183 3183 3182 3181 3182 3181 3181 3181 3181 3181 3182 3181 3180 3180 3180 3179 3179 3178 3178 3178 3178
3188 3188 3188 3188 3188 3188 3188 3188 3188 3188 3188 3188 3188 3188 3188 3188 3188 3188 3188 3187 3187 3187 3187 3188 3188 3188 3188 3188 3188 3188 3188 3188 3188 3188 3189 3189 3189 3189 3189 3189 3189 3189 3189 3189 3189 3188 3188 3188 3188 3188 3188 3188 3188 3187 3187 3187 3187 3187 3187 3186 3186 3186 3186 3185 3185 3185 3185 3185 3185 3185 3185 3184 3184 3184 3184 3184 3184 3183 3183 3183 3182 3182 3182 3182 3182 3182 3182 3181 3182 3182 3182 3182 3181 3180 3180 3180 3179 3179 3178 3178 3178 3178 3178
3189 3189 3189 3189 3189 3189 3189 3189 3189 3189 3189 3189 3189 3189 3189 3189 3188 3188 3188 3188 3188 3188 3188 3188 3188 3189 3189 3189 3189 3189 3189 3189 3189 3189 3189 3189 3189 3189 3189 3189 3189 3189 3189 3189 3189 3189 3189 3189 3189 3188 3188 3188 3188 3188 3188 3187 3187 3187 3187 3186 3186 3186 3185 3185 3185 3185 3185 3185 3185 3184 3184 3184 3184 3184 3184 3183 3183 3183 3183 3182 3182 3182 3182 3182 3182 3182 3182 3181 3181 3181 3181 3181 3180 3180 3180 3179 3179 3178 3178 3178 3178 3178 3178
3190 3190 3189 3189 3189 3189 3189 3189 3189 3189 3190 3190 3190 3190 3189 3189 3189 3189 3189 3189 3189 3189 3189 3189 3189 3189 3189 3189 3189 3190 3190 3190 3190 3190 3190 3190 3190 3190 3190 3190 3190 3190 3190 3190 3190 3189 3189 3189 3189 3189 3188 3188 3188 3188 3188 3187 3187 3187 3187 3186 3186 3186 3185 3185 3185 3185 3185 3185 3184 3184 3184 3184 3184 3183 3183 3183 3183 3183 3183 3182 3182 3182 3182 3182 3182 3181 3181 3181 3180 3180 3180 3180 3180 3180 3180 3179 3179 3178 3178 3178 3178 3178 3177
3190 3190 3190 3190 3190 3190 3190 3190 3190 3190 3190 3190 3190 3190 3190 3190 3190 3190 3190 3190 3190 3190 3190 3190 3190 3190 3190 3190 3190 3190 3190 3190 3190 3190 3190 3190 3190 3190 3190 3190 3190 3190 3190 3190 3190 3190 3189 3189 3189 3189 3189 3188 3188 3188 3188 3188 3187 3187 3187 3186 3186 3186 3185 3185 3185 3185 3185 3184 3184 3184 3184 3184 3183 3183 3183 3183 3183 3183 3183 3183 3182 3182 3181 3181 3181 3181 3181 3181 3180 3180 3180 3180 3180 3180 3180 3180 3179 3178 3178 3178 3178 3177 3177
3190 3190 3190 3190 3190 3190 3190 3190 3190 3191 3191 3191 3191 3191 3191 3191 3191 3191 3191 3191 3190 3190 3191 3191 3191 3191 3191 3191 3191 3191 3191 3191 3191 3191 3191 3191 3191 3191 3191 3191 3191 3190 3190 3190 3190 3190 3190 3190 3189 3189 3189 3188 3188 3188 3188 3188 3187 3187 3187 3186 3186 3186 3185 3185 3185 3185 3184 3184 3184 3184 3184 3183 3183 3183 3183 3182 3182 3182 3182 3182 3182 3182 3181 3181 3181 3181 3181 3181 3181 3180 3180 3180 3179 3179 3179 3179 3179 3179 3178 3178 3177 3177 3177
3191 3191 3191 3191 3191 3191 3191 3191 3191 3191 3191 3191 3191 3191 3191 3191 3191 3191 3191 3191 3191 3191 3191 3191 3191 3191 3191 3191 3191 3191 3191 3191 3191 3191 3191 3191 3191 3191 3191 3191 3191 3191 3191 3190 3190 3190 3190 3190 3189 3189 3189 3188 3188 3188 3188 3188 3187 3187 3187 3186 3186 3185 3185 3185 3185 3185 3184 3184 3184 3183 3183 3183 3183 3183 3183 3182 3182 3182 3182 3182 3182 3181 3181 3181 3180 3180 3180 3180 3180 3180 3180 3180 3180 3179 3179 3179 3179 3179 3178 3178 3177 3177 3177
3191 3191 3191 3191 3191 3191 3191 3191 3192 3192 3192 3192 3192 3192 3192 3192 3192 3192 3192 3192 3192 3192 3192 3192 3192 3192 3192 3192 3192 3192 3192 3192 3192 3192 3192 3192 3192 3192 3191 3191 3191 3191 3191 3190 3190 3190 3190 3190 3189 3189 3189 3188 3188 3188 3188 3188 3187 3187 3186 3186 3186 3185 3185 3185 3185 3184 3184 3184 3183 3183 3183 3183 3183 3183 3183 3182 3182 3182 3182 3181 3181 3181 3181 3181 3180 3180 3180 3180 3180 3180 3180 3180 3180 3179 3178 3178 3178 3178 3178 3177 3177 3177 3177
3192 3192 3192 3192 3192 3192 3192 3192 3192 3192 3192 3192 3192 3192 3192 3192 3193 3193 3193 3193 3193 3193 3193 3193 3193 3193 3193 3193 3193 3193 3193 3192 3192 3192 3192 3192 3192 3192 3192 3191 3191 3191 3191 3190 3190 3190 3190 3190 3189 3189 3189 3188 3188 3188 3188 3187 3187 3187 3186 3186 3186 3185 3185 3185 3184 3184 3184 3184 3183 3183 3183 3183 3183 3182 3182 3182 3182 3182 3181 3181 3181 3181 3180 3180 3180 3180 3180 3179 3179 3179 3179 3179 3179 3178 3178 3177 3177 3177 3177 3176 3176 3176 3176
3192 3192 3192 3192 3192 3192 3192 3192 3192 3192 3192 3192 3193 3193 3193 3193 3193 3193 3193 3193 3193 3193 3193 3193 3193 3193 3193 3193 3193 3193 3193 3193 3193 3193 3192 3192 3192 3192 3192 3192 3191 3191 3191 3191 3190 3190 3190 3190 3189 3189 3189 3188 3188 3188 3187 3187 3187 3186 3186 3186 3185 3185 3185 3185 3184 3184 3184 3184 3183 3183 3183 3183 3182 3182 3182 3182 3182 3181 3181 3181 3181 3180 3180 3180 3180 3180 3179 3179 3179 3179 3178 3178 3178 3177 3177 3177 3177 3176 3176 3176 3176 3176 3175
3192 3192 3192 3193 3193 3193 3193 3193 3193 3193 3193 3193 3193 3193 3193 3193 3193 3193 3193 3193 3193 3193 3193 3193 3193 3193 3193 3193 3193 3193 3193 3193 3193 3193 3193 3192 3192 3192 3192 3192 3191 3191 3191 3191 3190 3190 3190 3190 3189 3189 3189 3188 3188 3188 3187 3187 3187 3186 3186 3186 3185 3185 3185 3185 3184 3184 3184 3183 3183 3183 3183 3183 3182 3182 3182 3182 3181 3181 3181 3181 3180 3180 3180 3180 3180 3179 3179 3179 3178 3178 3178 3178 3177 3177 3177 3176 3176 3176 3176 3175 3175 3175 3175
3193 3193 3193 3193 3193 3193 3193 3193 3193 3193 3193 3193 3193 3193 3193 3193 3193 3193 3193 3194 3194 3194 3194 3194 3194 3194 3194 3194 3194 3193 3193 3193 3193 3193 3193 3193 3192 3192 3192 3192 3191 3191 3191 3191 3190 3190 3190 3190 3189 3189 3189 3188 3188 3187 3187 3187 3186 3186 3186 3186 3185 3185 3185 3185 3184 3184 3184 3183 3183 3183 3183 3182 3182 3182 3182 3181 3181 3181 3181 3180 3180 3180 3180 3180 3179 3179 3179 3178 3178 3178 3178 3177 3177 3177 3176 3176 3176 3176 3175 3175 3175 3175 3175
3193 3193 3193 3193 3193 3193 3194 3194 3194 3193 3193 3193 3193 3193 3193 3193 3193 3194 3194 3194 3194 3194 3194 3194 3194 3194 3194 3194 3194 3194 3194 3193 3193 3193 3193 3193 3192 3192 3192 3192 3191 3191 3191 3191 3190 3190 3190 3190 3189 3189 3189 3188 3188 3187 3187 3187 3186 3186 3186 3185 3185 3185 3185 3185 3184 3184 3184 3183 3183 3183 3183 3182 3182 3182 3182 3181 3181 3181 3180 3180 3180 3180 3180 3179 3179 3179 3178 3178 3178 3177 3177 3177 3177 3176 3176 3176 3175 3175 3175 3175 3175 3175 3175
3193 3193 3194 3194 3194 3194 3194 3194 3194 3194 3194 3194 3194 3194 3194 3194 3194 3194 3194 3194 3194 3194 3194 3194 3194 3194 3194 3194 3194 3194 3194 3193 3193 3193 3193 3193 3193 3192 3192 3192 3192 3191 3191 3191 3190 3190 3190 3190 3189 3189 3189 3188 3188 3187 3187 3186 3186 3186 3186 3185 3185 3185 3185 3184 3184 3184 3183 3183 3183 3183 3182 3182 3182 3182 3181 3181 3181 3180 3180 3180 3180 3180 3179 3179 3179 3178 3178 3178 3177 3177 3177 3177 3176 3176 3176 3175 3175 3175 3175 3175 3175 3175 3175
3194 3194 3194 3194 3194 3194 3194 3194 3194 3194 3194 3194 3194 3194 3194 3194 3194 3194 3194 3194 3194 3194 3194 3194 3194 3194 3194 3194 3194 3194 3194 3194 3193 3193 3193 3193 3193 3192 3192 3192 3192 3191 3191 3191 3190 3190 3190 3190 3189 3189 3189 3188 3188 3187 3187 3186 3186 3186 3185 3185 3185 3185 3184 3184 3184 3183 3183 3183 3183 3182 3182 3182 3182 3182 3181 3181 3181 3180 3180 3180 3179 3179 3179 3179 3178 3178 3178 3178 3177 3177 3177 3176 3176 3176 3175 3175 3175 3175 3175 3175 3175 3175 3174
3194 3194 3194 3194 3194 3194 3194 3194 3194 3194 3194 3194 3194 3194 3194 3194 3194 3194 3194 3194 3194 3194 3194 3194 3194 3194 3194 3194 3194 3194 3194 3194 3193 3193 3193 3193 3193 3192 3192 3192 3192 3191 3191 3191 3190 3190 3190 3190 3189 3189 3188 3188 3187 3187 3187 3186 3186 3185 3185 3185 3185 3184 3184 3184 3183 3183 3183 3182 3182 3182 3182 3181 3181 3181 3181 3180 3180 3180 3180 3179 3179 3179 3179 3178 3178 3178 3178 3177 3177 3177 3176 3176 3176 3175 3175 3175 3175 3175 3175 3175 3174 3174 3174
3194 3194 3194 3194 3194 3194 3194 3194 3194 3194 3194 3194 3194 3194 3194 3194 3194 3194 3194 3194 3194 3194 3194 3194 3194 3194 3194 3194 3194 3194 3194 3193 3193 3193 3193 3193 3193 3192 3192 3192 3192 3191 3191 3191 3190 3190 3190 3190 3189 3189 3188 3188 3187 3187 3186 3186 3185 3185 3185 3184 3184 3184 3184 3183 3183 3182 3182 3182 3182 3181 3181 3181 3181 3180 3180 3180 3180 3180 3179 3179 3179 3179 3178 3178 3178 3178 3177 3177 3177 3176 3176 3176 3175 3175 3175 3175 3175 3175 3175 3174 3174 3174 3174
3193 3194 3194 3194 3194 3194 3194 3194 3194 3194 3194 3194 3194 3194 3194 3194 3194 3194 3194 3194 3194 3194 3194 3194 3194 3194 3194 3194 3194 3193 3193 3193 3193 3193 3193 3193 3192 3192 3192 3192 3191 3191 3191 3190 3190 3190 3190 3189 3189 3189 3188 3188 3187 3186 3186 3185 3185 3185 3184 3184 3184 3183 3183 3183 3182 3182 3182 3182 3181 3181 3181 3180 3180 3180 3180 3180 3180 3179 3179 3179 3179 3178 3178 3178 3177 3177 3177 3177 3176 3176 3176 3175 3175 3175 3175 3175 3175 3174 3174 3174 3174 3174 3173
3193 3193 3193 3193 3193 3193 3194 3194 3194 3194 3194 3194 3194 3194 3194 3194 3194 3194 3194 3194 3194 3194 3194 3193 3193 3193 3193 3193 3193 3193 3193 3193 3193 3193 3192 3192 3192 3192 3192 3191 3191 3191 3191 3190 3190 3190 3190 3189 3189 3188 3188 3187 3187 3186 3186 3185 3185 3184 3184 3183 3183 3183 3182 3182 3182 3181 3181 3181 3181 3180 3180 3180 3180 3180 3180 3179 3179 3179 3179 3178 3178 3178 3178 3177 3177 3177 3176 3176 3176 3176 3175 3175 3175 3175 3175 3174 3174 3174 3174 3174 3173 3173 3173
3193 3193 3193 3193 3193 3193 3193 3193 3193 3194 3194 3194 3194 3194 3194 3194 3194 3194 3194 3194 3194 3193 3193 3193 3193 3193 3193 3193 3193 3193 3193 3193 3192 3192 3192 3192 3192 3192 3191 3191 3191 3191 3190 3190 3190 3190 3189 3189 3188 3188 3188 3187 3187 3186 3185 3185 3185 3184 3183 3183 3183 3182 3182 3182 3181 3181 3181 3180 3180 3180 3180 3180 3179 3179 3179 3179 3179 3178 3178 3178 3178 3177 3177 3177 3177 3176 3176 3176 3175 3175 3175 3175 3175 3174 3174 3174 3174 3174 3173 3173 3173 3173 3173
3192 3192 3192 3192 3192 3193 3193 3193 3193 3193 3193 3193 3193 3193 3193 3193 3193 3193 3193 3193 3193 3193 3193 3193 3193 3193 3193 3193 3193 3192 3192 3192 3192 3192 3192 3192 3191 3191 3191 3191 3191 3190 3190 3190 3190 3189 3189 3189 3188 3188 3187 3187 3186 3186 3185 3185 3184 3184 3183 3183 3182 3182 3181 3181 3181 3180 3180 3180 3180 3180 3180 3179 3179 3179 3178 3178 3178 3178 3178 3177 3177 3177 3177 3176 3176 3176 3176 3175 3175 3175 3175 3174 3174 3174 3174 3174 3173 3173 3173 3173 3172 3172 3172
3191 3191 3191 3192 3192 3192 3192 3192 3192 3192 3192 3193 3193 3193 3193 3193 3193 3193 3193 3193 3193 3193 3193 3193 3192 3192 3192 3192 3192 3192 3192 3192 3192 3192 3191 3191 3191 3191 3191 3190 3190 3190 3190 3190 3189 3189 3189 3188 3188 3188 3187 3187 3186 3185 3185 3184 3184 3183 3183 3182 3182 3181 3181 3181 3180 3180 3180 3180 3180 3179 3179 3179 3178 3178 3178 3178 3178 3177 3177 3177 3177 3176 3176 3176 3176 3175 3175 3175 3175 3175 3174 3174 3174 3173 3173 3173 3173 3173 3172 3172 3172 3172 3172
3190 3190 3190 3191 3191 3191 3191 3191 3192 3192 3192 3192 3192 3192 3192 3192 3192 3192 3192 3192 3192 3192 3192 3192 3192 3192 3192 3192 3192 3192 3191 3191 3191 3191 3191 3191 3191 3190 3190 3190 3190 3190 3189 3189 3189 3188 3188 3188 3187 3187 3187 3186 3186 3185 3185 3184 3183 3183 3182 3182 3181 3181 3180 3180 3180 3180 3180 3179 3179 3179 3178 3178 3178 3178 3177 3177 3177 3177 3177 3176 3176 3176 3176 3175 3175 3175 3175 3175 3174 3174 3174 3174 3173 3173 3173 3173 3172 3172 3172 3172 3171 3171 3171
3190 3190 3190 3190 3190 3190 3191 3191 3191 3191 3191 3191 3192 3192 3192 3192 3192 3192 3192 3192 3192 3192 3192 3192 3191 3191 3191 3191 3191 3191 3191 3191 3191 3191 3190 3190 3190 3190 3190 3190 3189 3189 3189 3189 3188 3188 3188 3187 3187 3187 3186 3186 3185 3185 3184 3184 3183 3182 3182 3181 3181 3180 3180 3180 3179 3179 3179 3179 3178 3178 3178 3178 3177 3177 3177 3177 3176 3176 3176 3176 3176 3175 3175 3175 3175 3175 3175 3174 3174 3174 3173 3173 3173 3173 3172 3172 3172 3172 3171 3171 3171 3171 3170
3189 3189 3189 3189 3190 3190 3190 3190 3190 3190 3190 3191 3191 3191 3191 3191 3191 3191 3191 3191 3191 3191 3191 3191 3191 3191 3191 3191 3190 3190 3190 3190 3190 3190 3190 3190 3190 3189 3189 3189 3189 3188 3188 3188 3188 3187 3187 3187 3186 3186 3186 3185 3185 3184 3184 3183 3183 3182 3181 3181 3180 3180 3180 3179 3179 3179 3178 3178 3178 3178 3177 3177 3177 3176 3176 3176 3176 3175 3175 3175 3175 3175 3175 3175 3174 3174 3174 3174 3173 3173 3173 3173 3172 3172 3172 3172 3171 3171 3171 3171 3170 3170 3170
3188 3188 3189 3189 3189 3189 3189 3190 3190 3190 3190 3190 3190 3190 3190 3190 3190 3190 3190 3190 3190 3190 3190 3190 3190 3190 3190 3190 3190 3190 3190 3190 3190 3189 3189 3189 3189 3189 3188 3188 3188 3188 3188 3187 3187 3186 3186 3186 3186 3185 3185 3185 3184 3184 3183 3183 3182 3181 3181 3180 3180 3179 3179 3179 3178 3178 3178 3177 3177 3177 3177 3176 3176 3176 3176 3175 3175 3175 3175 3175 3174 3174 3174 3174 3174 3173 3173 3173 3173 3173 3172 3172 3172 3172 3171 3171 3171 3171 3170 3170 3170 3170 3169
3187 3187 3188 3188 3188 3188 3188 3189 3189 3189 3189 3189 3189 3190 3190 3190 3190 3190 3190 3190 3190 3190 3190 3190 3189 3189 3189 3189 3189 3189 3189 3189 3189 3189 3188 3188 3188 3188 3188 3187 3187 3187 3187 3186 3186 3186 3185 3185 3185 3185 3185 3185 3184 3183 3182 3182 3181 3181 3180 3180 3179 3179 3178 3178 3178 3177 3177 3177 3177 3176 3176 3176 3175 3175 3175 3175 3175 3174 3174 3174 3174 3174 3173 3173 3173 3173 3173 3172 3172 3172 3172 3172 3171 3171 3171 3171 3170 3170 3170 3170 3169 3169 3169
3186 3186 3186 3187 3187 3187 3187 3187 3188 3188 3188 3188 3188 3188 3189 3189 3189 3189 3189 3189 3189 3189 3189 3189 3188 3188 3188 3188 3188 3188 3188 3188 3188 3188 3188 3187 3187 3187 3187 3187 3186 3186 3186 3186 3185 3185 3185 3185 3184 3184 3184 3184 3183 3182 3182 3181 3181 3180 3180 3179 3179 3178 3178 3177 3177 3177 3176 3176 3176 3176 3175 3175 3175 3175 3175 3174 3174 3174 3174 3173 3173 3173 3173 3173 3172 3172 3172 3172 3172 3171 3171 3171 3171 3170 3170 3170 3170 3170 3170 3169 3169 3169 3168
3185 3185 3185 3185 3186 3186 3186 3186 3186 3187 3187 3187 3187 3187 3187 3188 3188 3188 3188 3188 3188 3188 3188 3188 3188 3187 3187 3187 3187 3187 3187 3187 3187 3187 3186 3186 3186 3186 3186 3186 3185 3185 3185 3185 3185 3184 3184 3184 3184 3183 3183 3183 3183 3182 3181 3181 3180 3180 3179 3179 3178 3178 3177 3177 3176 3176 3176 3175 3175 3175 3175 3175 3175 3174 3174 3174 3173 3173 3173 3173 3172 3172 3172 3172 3172 3171 3171 3171 3171 3171 3170 3170 3170 3170 3170 3170 3169 3169 3169 3169 3168 3168 3168
3184 3184 3184 3184 3185 3185 3185 3185 3185 3185 3185 3186 3185 3185 3186 3186 3187 3187 3187 3187 3187 3187 3187 3187 3186 3186 3186 3186 3186 3186 3186 3186 3185 3185 3185 3185 3185 3185 3185 3185 3185 3185 3184 3184 3184 3183 3183 3183 3182 3182 3182 3182 3182 3181 3180 3180 3180 3179 3179 3178 3178 3177 3177 3176 3176 3175 3175 3175 3175 3175 3174 3174 3174 3174 3173 3173 3173 3173 3172 3172 3172 3172 3171 3171 3171 3171 3171 3170 3170 3170 3170 3170 3170 3170 3169 3169 3169 3169 3168 3168 3168 3168 3167
3183 3183 3183 3183 3183 3184 3184 3184 3184 3184 3184 3185 3185 3184 3184 3185 3185 3185 3186 3186 3185 3185 3185 3185 3185 3185 3185 3185 3185 3185 3185 3185 3185 3184 3184 3184 3184 3184 3184 3184 3184 3184 3183 3183 3183 3182 3182 3182 3181 3181 3181 3181 3181 3181 3180 3179 3179 3179 3178 3177 3177 3176 3176 3175 3175 3175 3175 3174 3174 3174 3174 3173 3173 3173 3173 3172 3172 3172 3172 3171 3171 3171 3171 3170 3170 3170 3170 3170 3170 3170 3169 3169 3169 3169 3169 3168 3168 3168 3168 3168 3167 3167 3167
3182 3182 3182 3182 3182 3182 3183 3183 3183 3183 3183 3183 3183 3183 3183 3183 3183 3184 3184 3185 3185 3184 3184 3184 3184 3184 3184 3184 3184 3183 3184 3183 3183 3183 3183 3183 3183 3183 3183 3182 3182 3182 3182 3182 3182 3181 3181 3181 3180 3180 3180 3180 3180 3180 3179 3179 3178 3178 3177 3177 3176 3176 3175 3175 3174 3174 3174 3173 3173 3173 3173 3172 3172 3172 3172 3172 3171 3171 3171 3170 3170 3170 3170 3170 3170 3170 3169 3169 3169 3169 3169 3168 3168 3168 3168 3168 3168 3167 3167 3167 3167 3166 3166
3181 3181 3181 3181 3181 3181 3181 3181 3181 3182 3182 3182 3182 3182 3182 3181 3181 3182 3182 3183 3183 3183 3183 3183 3183 3183 3183 3182 3182 3182 3182 3182 3182 3182 3182 3182 3182 3182 3181 3181 3181 3181 3181 3181 3180 3180 3180 3180 3179 3179 3179 3179 3179 3179 3179 3178 3177 3177 3176 3176 3175 3175 3174 3174 3174 3173 3173 3172 3172 3172 3172 3172 3171 3171 3171 3171 3170 3170 3170 3170 3170 3169 3169 3169 3169 3169 3168 3168 3168 3168 3168 3167 3167 3167 3167 3167 3167 3167 3166 3166 3166 3166 3166
3179 3180 3180 3180 3180 3180 3180 3180 3180 3180 3180 3180 3180 3181 3181 3180 3180 3180 3180 3181 3181 3181 3181 3181 3181 3181 3181 3181 3181 3181 3181 3180 3180 3180 3180 3180 3180 3180 3180 3180 3180 3180 3180 3180 3179 3179 3179 3178 3178 3178 3177 3177 3177 3177 3178 3177 3176 3175 3175 3175 3175 3174 3174 3173 3173 3172 3172 3171 3171 3171 3171 3171 3170 3170 3170 3170 3170 3169 3169 3169 3169 3168 3168 3168 3168 3168 3167 3167 3167 3167 3167 3166 3166 3166 3166 3166 3166 3166 3165 3165 3165 3165 3165
3178 3178 3178 3179 3179 3179 3179 3179 3179 3179 3179 3179 3179 3179 3180 3179 3179 3179 3179 3179 3180 3180 3180 3180 3180 3180 3180 3180 3180 3179 3179 3179 3179 3179 3179 3179 3179 3179 3179 3179 3179 3179 3178 3178 3178 3178 3177 3177 3177 3176 3176 3176 3175 3176 3176 3176 3175 3174 3174 3174 3174 3173 3173 3172 3172 3171 3171 3170 3170 3170 3170 3170 3170 3169 3169 3169 3169 3168 3168 3168 3168 3167 3167 3167 3167 3167 3166 3166 3166 3166 3166 3165 3165 3165 3165 3165 3165 3165 3165 3165 3164 3164 3164
3177 3177 3177 3177 3177 3177 3177 3178 3178 3178 3178 3178 3178 3178 3178 3178 3178 3177 3177 3177 3178 3178 3178 3178 3178 3178 3178 3178 3178 3178 3178 3178 3177 3177 3177 3178 3178 3178 3177 3177 3177 3177 3177 3177 3177 3176 3176 3175 3175 3175 3175 3174 3174 3174 3175 3175 3174 3173 3173 3172 3172 3172 3172 3171 3171 3170 3170 3170 3169 3169 3169 3169 3168 3168 3168 3168 3168 3167 3167 3167 3166 3166 3166 3166 3166 3166 3165 3165 3165 3165 3165 3165 3164 3164 3164 3164 3164 3164 3164 3163 3163 3163 3163
3175 3175 3175 3175 3176 3176 3176 3176 3176 3176 3176 3176 3176 3177 3177 3177 3177 3176 3176 3176 3176 3176 3176 3177 3177 3177 3177 3177 3177 3177 3176 3176 3176 3176 3176 3176 3176 3176 3176 3176 3175 3175 3175 3175 3175 3175 3175 3174 3174 3174 3173 3173 3173 3173 3173 3173 3173 3172 3171 3171 3171 3171 3170 3170 3170 3169 3169 3169 3168 3168 3168 3167 3167 3167 3167 3167 3166 3166 3166 3166 3165 3165 3165 3165 3165 3165 3165 3165 3164 3164 3164 3164 3164 3163 3163 3163 3163 3163 3162 3162 3162 3162 3162
3173 3174 3174 3174 3174 3174 3174 3174 3175 3175 3175 3175 3175 3175 3175 3175 3175 3175 3175 3174 3174 3175 3175 3175 3175 3175 3176 3175 3175 3175 3175 3175 3175 3174 3174 3174 3175 3175 3175 3174 3174 3174 3174 3174 3174 3173 3173 3173 3173 3172 3172 3171 3171 3171 3171 3171 3171 3171 3170 3170 3170 3170 3169 3169 3169 3168 3168 3167 3167 3167 3166 3166 3166 3166 3165 3165 3165 3165 3165 3165 3165 3164 3164 3164 3164 3164 3164 3163 3163 3163 3163 3163 3163 3162 3162 3162 3162 3161 3161 3161 3161 3161 3161
3171 3172 3172 3172 3172 3173 3173 3172 3173 3173 3173 3173 3173 3174 3174 3174 3174 3173 3173 3173 3173 3173 3173 3173 3173 3174 3174 3174 3174 3174 3174 3173 3173 3173 3172 3172 3173 3173 3173 3173 3173 3172 3172 3172 3172 3172 3171 3171 3171 3171 3170 3170 3170 3170 3169 3170 3170 3170 3169 3169 3168 3168 3168 3168 3167 3167 3166 3166 3166 3165 3165 3165 3165 3165 3164 3164 3164 3164 3164 3164 3163 3163 3163 3163 3162 3162 3162 3162 3162 3162 3162 3162 3162 3161 3161 3161 3161 3160 3160 3160 3160 3160 3160
3169 3170 3170 3170 3171 3171 3171 3170 3171 3171 3171 3172 3172 3172 3172 3172 3172 3172 3171 3171 3171 3171 3171 3171 3171 3172 3172 3172 3172 3172 3172 3172 3171 3171 3170 3170 3171 3171 3171 3171 3171 3171 3170 3170 3170 3170 3170 3170 3170 3169 3169 3169 3168 3168 3168 3168 3168 3168 3168 3167 3167 3166 3166 3166 3166 3165 3165 3165 3165 3164 3164 3164 3163 3163 3163 3163 3163 3163 3162 3162 3162 3162 3161 3161 3161 3161 3161 3161 3161 3161 3161 3160 3160 3160 3160 3160 3160 3160 3159 3159 3159 3159 3159
3167 3167 3168 3168 3169 3169 3169 3169 3169 3169 3169 3170 3170 3170 3170 3170 3170 3170 3170 3169 3169 3169 3169 3169 3169 3170 3170 3170 3170 3170 3170 3170 3170 3169 3169 3168 3169 3169 3169 3169 3169 3169 3169 3169 3169 3168 3168 3168 3168 3168 3168 3167 3167 3166 3166 3166 3166 3166 3166 3166 3165 3165 3165 3165 3164 3164 3164 3163 3163 3163 3163 3162 3162 3162 3162 3161 3161 3161 3161 3161 3160 3160 3160 3160 3160 3160 3160 3160 3160 3159 3159 3159 3159 3159 3159 3159 3159 3159 3158 3158 3158 3158 3157
3165 3165 3166 3166 3166 3167 3167 3167 3167 3167 3167 3168 3168 3168 3168 3168 3168 3168 3168 3167 3167 3167 3166 3167 3167 3168 3168 3168 3168 3168 3168 3168 3168 3167 3167 3166 3166 3167 3167 3167 3167 3167 3167 3167 3167 3166 3166 3166 3166 3166 3166 3165 3165 3165 3165 3164 3164 3164 3164 3164 3164 3164 3163 3163 3163 3162 3162 3162 3161 3161 3161 3161 3160 3160 3160 3160 3160 3160 3160 3159 3159 3159 3159 3159 3158 3158 3158 3158 3158 3158 3158 3158 3158 3158 3158 3158 3157 3157 3157 3157 3157 3156 3156
3164 3164 3164 3164 3165 3165 3165 3165 3165 3165 3165 3165 3166 3166 3166 3166 3166 3166 3166 3165 3165 3165 3165 3165 3165 3166 3166 3166 3166 3166 3166 3166 3166 3165 3165 3164 3164 3164 3165 3165 3165 3165 3165 3165 3165 3165 3164 3164 3164 3164 3164 3164 3164 3163 3163 3163 3162 3162 3162 3162 3162 3162 3161 3161 3161 3161 3160 3160 3160 3160 3159 3159 3159 3159 3159 3158 3158 3158 3158 3158 3157 3157 3157 3157 3157 3157 3157 3156 3156 3156 3156 3156 3156 3156 3156 3156 3156 3156 3156 3155 3155 3155 3155
3162 3162 3162 3163 3163 3163 3163 3163 3163 3163 3163 3164 3164 3164 3165 3165 3165 3164 3164 3164 3163 3163 3163 3163 3163 3164 3164 3164 3164 3164 3164 3164 3164 3164 3163 3162 3162 3162 3162 3163 3163 3163 3163 3163 3163 3163 3162 3162 3162 3162 3162 3162 3162 3161 3161 3161 3161 3160 3160 3160 3160 3160 3160 3159 3160 3159 3159 3159 3158 3158 3157 3157 3157 3157 3157 3157 3157 3156 3156 3156 3156 3155 3155 3155 3155 3155 3155 3155 3155 3155 3155 3155 3155 3155 3155 3155 3154 3154 3154 3154 3154 3154 3154
3161 3161 3161 3161 3161 3162 3162 3162 3162 3162 3162 3162 3162 3162 3163 3163 3163 3162 3162 3162 3162 3161 3161 3161 3161 3162 3162 3162 3162 3162 3162 3162 3162 3161 3161 3160 3160 3160 3160 3160 3161 3161 3161 3161 3161 3160 3160 3160 3160 3160 3160 3160 3160 3160 3159 3159 3159 3159 3159 3158 3158 3158 3157 3157 3157 3157 3157 3157 3157 3156 3155 3155 3155 3155 3155 3155 3155 3155 3155 3154 3154 3154 3154 3154 3153 3153 3153 3153 3153 3153 3153 3153 3153 3153 3153 3153 3153 3153 3153 3153 3152 3152 3152
3159 3160 3160 3160 3160 3160 3160 3160 3160 3160 3160 3160 3160 3161 3161 3161 3161 3161 3160 3160 3160 3160 3159 3159 3160 3160 3160 3160 3160 3160 3160 3160 3160 3160 3159 3159 3158 3157 3157 3158 3159 3159 3159 3159 3159 3158 3158 3158 3158 3158 3158 3158 3158 3157 3157 3157 3157 3157 3157 3156 3156 3156 3155 3155 3155 3155 3155 3155 3155 3155 3154 3154 3153 3153 3153 3153 3153 3153 3153 3152 3152 3152 3152 3152 3152 3151 3151 3151 3151 3151 3151 3151 3151 3151 3151 3151 3151 3151 3151 3151 3150 3150 3150
3158 3158 3159 3159 3159 3159 3159 3159 3159 3159 3159 3159 3159 3159 3160 3160 3160 3159 3159 3159 3158 3158 3158 3157 3158 3158 3158 3158 3158 3158 3158 3158 3158 3158 3157 3157 3156 3155 3155 3155 3156 3157 3157 3156 3156 3156 3156 3156 3156 3156 3155 3155 3155 3155 3155 3155 3155 3155 3155 3155 3154 3154 3153 3153 3153 3153 3153 3153 3153 3153 3152 3152 3151 3151 3151 3151 3151 3151 3151 3150 3150 3150 3150 3150 3150 3150 3150 3150 3150 3150 3149 3149 3149 3149 3149 3149 3149 3149 3149 3149 3149 3149 3149
3156 3157 3157 3157 3157 3157 3157 3157 3157 3157 3157 3157 3157 3157 3158 3158 3158 3157 3157 3157 3156 3156 3156 3156 3156 3156 3156 3156 3156 3156 3155 3155 3155 3155 3155 3155 3154 3153 3153 3153 3153 3154 3154 3154 3154 3154 3154 3154 3154 3154 3154 3153 3153 3153 3153 3153 3153 3153 3153 3153 3153 3152 3152 3151 3151 3150 3150 3150 3151 3151 3151 3150 3150 3149 3150 3149 3149 3149 3149 3149 3149 3148 3148 3148 3148 3148 3148 3148 3148 3147 3147 3147 3147 3147 3147 3147 3147 3147 3147 3147 3147 3147 3147
3155 3155 3155 3155 3155 3155 3155 3155 3155 3155 3155 3155 3155 3155 3156 3156 3155 3155 3155 3155 3155 3154 3154 3154 3154 3154 3155 3154 3154 3154 3153 3153 3153 3153 3153 3153 3152 3151 3151 3150 3150 3151 3151 3152 3152 3151 3151 3151 3151 3151 3151 3151 3151 3151 3150 3150 3150 3151 3151 3151 3150 3150 3150 3149 3149 3148 3148 3148 3148 3149 3149 3148 3148 3147 3147 3147 3147 3147 3147 3147 3146 3146 3146 3146 3146 3146 3146 3146 3145 3145 3145 3145 3145 3145 3145 3145 3145 3145 3145 3145 3145 3145 3145
3153 3153 3154 3154 3154 3154 3154 3153 3153 3153 3153 3153 3153 3154 3154 3154 3154 3153 3153 3153 3152 3152 3152 3151 3151 3152 3153 3153 3152 3152 3151 3150 3150 3150 3150 3150 3150 3150 3149 3149 3148 3148 3148 3148 3149 3149 3149 3149 3149 3149 3149 3149 3149 3149 3148 3148 3148 3148 3149 3149 3149 3148 3148 3147 3147 3146 3146 3146 3146 3146 3146 3146 3145 3145 3145 3145 3145 3145 3145 3145 3145 3144 3144 3144 3144 3144 3144 3144 3144 3143 3144 3144 3144 3143 3143 3143 3143 3143 3143 3143 3143 3142 3142
3151 3152 3152 3152 3152 3151 3151 3151 3151 3151 3151 3151 3151 3152 3152 3152 3152 3151 3151 3151 3150 3150 3150 3149 3149 3150 3150 3150 3150 3150 3150 3148 3147 3147 3148 3148 3148 3148 3147 3146 3145 3145 3145 3145 3145 3146 3146 3146 3146 3147 3147 3147 3147 3146 3146 3146 3146 3146 3146 3146 3146 3146 3145 3145 3145 3144 3144 3144 3144 3144 3144 3144 3143 3143 3143 3143 3143 3143 3143 3143 3142 3142 3142 3142 3142 3142 3142 3141 3141 3141 3141 3141 3141 3141 3141 3141 3141 3141 3140 3140 3140 3140 3140
3149 3150 3150 3150 3150 3150 3150 3149 3149 3149 3149 3149 3149 3149 3150 3150 3150 3150 3149 3149 3148 3148 3147 3147 3147 3147 3148 3148 3148 3148 3147 3146 3145 3145 3146 3145 3145 3145 3144 3143 3143 3143 3143 3143 3143 3143 3143 3143 3144 3145 3145 3145 3144 3144 3144 3144 3143 3143 3144 3144 3143 3143 3143 3143 3143 3142 3142 3141 3141 3141 3141 3141 3141 3141 3141 3141 3141 3141 3141 3141 3140 3140 3140 3140 3140 3140 3140 3140 3139 3139 3139 3139 3139 3139 3139 3139 3139 3138 3138 3138 3138 3138 3138
3147 3147 3147 3148 3148 3147 3147 3147 3147 3146 3146 3146 3146 3147 3147 3148 3148 3148 3147 3147 3146 3145 3145 3145 3145 3145 3145 3145 3145 3145 3145 3145 3144 3143 3144 3143 3143 3142 3141 3141 3140 3140 3141 3140 3140 3140 3141 3141 3141 3142 3142 3142 3142 3141 3141 3141 3141 3141 3141 3141 3141 3140 3140 3140 3140 3140 3140 3140 3139 3139 3139 3139 3138 3138 3138 3138 3138 3138 3138 3138 3138 3138 3138 3137 3137 3137 3137 3137 3137 3137 3137 3137 3137 3137 3137 3136 3136 3136 3136 3135 3135 3135 3135
3145 3145 3145 3145 3145 3145 3145 3145 3145 3145 3144 3144 3143 3144 3145 3145 3145 3145 3145 3145 3145 3144 3143 3142 3142 3142 3142 3142 3143 3143 3142 3142 3142 3141 3141 3141 3140 3139 3138 3138 3138 3138 3137 3137 3136 3136 3138 3140 3140 3140 3139 3140 3139 3139 3139 3139 3139 3138 3138 3138 3138 3138 3137 3137 3137 3138 3138 3138 3137 3137 3136 3136 3136 3136 3136 3136 3136 3136 3136 3136 3136 3136 3136 3135 3135 3135 3135 3135 3134 3134 3135 3135 3135 3135 3134 3134 3134 3133 3133 3133 3133 3133 3133
3142 3143 3143 3143 3143 3143 3143 3143 3143 3143 3142 3141 3141 3141 3141 3142 3143 3143 3143 3143 3142 3142 3141 3140 3139 3139 3139 3139 3140 3140 3140 3139 3139 3139 3139 3138 3138 3137 3136 3135 3135 3135 3134 3133 3133 3133 3135 3137 3137 3137 3137 3137 3136 3135 3135 3136 3136 3136 3136 3135 3135 3135 3135 3135 3135 3135 3135 3135 3135 3135 3134 3134 3134 3133 3133 3133 3133 3133 3133 3133 3133 3133 3133 3133 3133 3133 3133 3132 3132 3132 3132 3132 3132 3132 3132 3131 3131 3131 3131 3131 3130 3130 3130
3140 3140 3140 3140 3140 3140 3140 3140 3140 3140 3140 3139 3139 3138 3138 3139 3140 3140 3140 3140 3140 3140 3139 3138 3136 3135 3136 3136 3136 3136 3136 3135 3135 3135 3136 3135 3135 3135 3134 3133 3132 3131 3130 3130 3130 3131 3133 3133 3133 3133 3133 3135 3134 3133 3133 3133 3133 3133 3133 3133 3133 3132 3132 3132 3132 3132 3132 3133 3132 3132 3132 3131 3131 3131 3131 3131 3131 3130 3130 3130 3130 3130 3130 3130 3130 3131 3131 3130 3130 3130 3130 3130 3130 3130 3129 3129 3129 3129 3128 3128 3128 3128 3128
3138 3138 3138 3138 3138 3138 3138 3138 3138 3138 3137 3137 3136 3135 3135 3136 3136 3137 3138 3138 3138 3138 3137 3136 3134 3133 3133 3133 3133 3133 3132 3132 3131 3132 3133 3133 3132 3132 3131 3130 3129 3129 3128 3127 3127 3128 3128 3128 3129 3129 3129 3131 3131 3130 3130 3130 3130 3130 3130 3130 3130 3130 3129 3129 3129 3129 3130 3130 3130 3129 3129 3129 3129 3129 3129 3129 3128 3128 3128 3127 3127 3127 3127 3127 3127 3128 3128 3128 3128 3129 3129 3129 3128 3128 3127 3127 3126 3126 3126 3125 3125 3125 3125
3135 3135 3135 3136 3136 3136 3136 3136 3135 3135 3135 3135 3134 3133 3133 3133 3133 3134 3135 3135 3135 3135 3135 3134 3132 3131 3130 3130 3129 3129 3128 3128 3128 3128 3129 3129 3129 3129 3129 3128 3127 3126 3125 3125 3125 3125 3125 3124 3124 3125 3125 3126 3127 3127 3127 3127 3127 3127 3127 3127 3127 3126 3126 3126 3126 3126 3126 3126 3126 3126 3126 3126 3126 3127 3126 3126 3126 3125 3125 3125 3125 3125 3125 3125 3125 3125 3125 3125 3125 3126 3127 3126 3126 3125 3125 3124 3124 3123 3123 3123 3123 3122 3122
3133 3133 3133 3134 3134 3134 3134 3134 3133 3133 3133 3132 3132 3131 3130 3130 3130 3130 3132 3132 3133 3133 3132 3131 3130 3129 3128 3126 3125 3125 3125 3124 3125 3125 3125 3125 3125 3125 3126 3126 3125 3124 3123 3123 3123 3123 3122 3120 3120 3121 3122 3122 3122 3123 3124 3124 3124 3124 3124 3124 3124 3123 3123 3123 3123 3123 3123 3124 3124 3123 3123 3123 3124 3124 3124 3124 3124 3123 3122 3122 3122 3122 3122 3122 3121 3121 3122 3122 3123 3123 3124 3124 3124 3123 3123 3122 3121 3120 3120 3120 3120 3120 3120
3131 3131 3131 3131 3131 3131 3131 3131 3131 3131 3130 3130 3130 3129 3128 3127 3127 3127 3128 3129 3130 3130 3129 3128 3128 3127 3125 3123 3122 3121 3121 3121 3121 3120 3121 3120 3121 3122 3123 3123 3122 3122 3121 3121 3120 3120 3118 3117 3117 3118 3118 3117 3118 3119 3120 3120 3121 3120 3120 3120 3120 3120 3120 3120 3120 3120 3120 3120 3120 3120 3120 3120 3121 3121 3121 3121 3121 3120 3120 3120 3120 3119 3119 3119 3119 3119 3119 3119 3120 3120 3121 3121 3121 3121 3120 3120 3119 3118 3117 3117 3117 3117 3117
3129 3129 3129 3129 3129 3129 3129 3129 3129 3129 3128 3128 3127 3126 3125 3125 3124 3124 3125 3126 3127 3127 3126 3126 3125 3124 3123 3121 3119 3118 3118 3118 3117 3116 3116 3117 3117 3118 3120 3120 3119 3119 3119 3119 3118 3117 3115 3114 3114 3115 3114 3114 3114 3115 3115 3116 3117 3117 3117 3117 3117 3117 3117 3117 3117 3117 3117 3117 3117 3117 3117 3117 3118 3118 3119 3119 3119 3118 3118 3117 3117 3117 3116 3116 3115 3115 3116 3116 3116 3117 3118 3118 3119 3118 3118 3117 3116 3115 3115 3114 3114 3114 3114